NOAA 20 (JPSS-1) (43013 NORAD) Tracking and Keplerian Element Data

This shows tracking and keplerian element data for the satellite.

Feedback or suggestion? Click here.




ElementValue
Catalog43013
NameNOAA 20 (JPSS-1)
Epoch Orbit37382
Epoch Day35.23551244
Epoch Year2025
RAAN335.5033
Inclination98.7305
Eccentricity2.05E-05
Argument of Perigee355.9514
Mean Anonmoly4.166
Mean Motion14.1954978
Decay Rate2.64E-06
L11 43013U 17073A 25035.23551244 .00000264 00000+0 14573-3 0 9994
L22 43013 98.7305 335.5033 0000205 355.9514 4.1660 14.19549780373824



Live tracking and technical data element details for NOAA 20 (JPSS-1) (NORAD 43013). NOAA 20 (JPSS-1) can be tracked NOW for your location showing map with azimuth and elevation plus other details from your city location.







IsCatalogInMostPopularTable: catalog: 43013, numindb: 1355
Update: records affected: 1



GetName: 43013 NOAA 20 (JPSS-1)

Hit Count: updated at: Wed, 14 May 2025 01:09:36 GMT